Regional Weather Roundup
Issued by NWS

Home | Current Version | Previous Version | Text Only | Print | Product List | Glossary Off
Versions: 1 2 3 4 5 6 7 8 9 10 11 12 13 14 15 16 17 18 19 20 21 22 23 24 25 26 27 28 29 30 31 32 33 34 35 36 37 38 39 40 41 42 43 44 45 46 47 48 49 50

000
ASUS45 KTFX 261019
RWRMT
MONTANA HOURLY WEATHER ROUNDUP
NATIONAL WEATHER SERVICE GREAT FALLS MT
319 AM MST FRI DEC 26 2014

NOTE: "FAIR" INDICATES FEW OR NO CLOUDS BELOW 12000 FEET WITH NO
SIGNIFICANT WEATHER AND/OR OBSTRUCTIONS TO VISIBILITY.

* THESE STATIONS ARE NOT UNDER NWS QUALITY CONTROL. THEY DO NOT
   REPORT WEATHER SUCH AS PRECIPITATION OR FOG.

MTZ001>007-043-261100-
WEST OF THE DIVIDE
CITY           SKY/WX    TMP DP  RH WIND       PRES   REMARKS
KALISPELL      CLOUDY    25  23  92 W3        30.04R
MISSOULA       CLOUDY    27  25  92 E3        30.06R
BUTTE          CLOUDY    12   9  88 CALM      29.96R
MULLAN PASS    CLOUDY    19  16  88 NW10G18   29.93R WCI   8
* ESSEX        N/A       22  20  92 NW1        N/A
* HAMILTON APT CLOUDY    27  19  72 S9        30.05R WCI  18
* LIBBY APT    PTCLDY    21  19  92 CALM      30.09R
* LINCOLN      N/A       23  18  81 SW3G8      N/A
* LOOKOUT PASS N/A       23  21  92 NE7G12     N/A   WCI  15
* POLSON       N/A       25  24  96 N/A        N/A
* RONAN APT    CLOUDY    28  27  96 N/A        N/A
* SEELEY LAKE  N/A       20  18  92 N/A        N/A
* THOMP F APT  MOCLDY    15   4  61 NW5G19     N/A   WCI   7
$$

MTZ008-052>055-261100-
SOUTHWEST MONTANA
CITY           SKY/WX    TMP DP  RH WIND       PRES   REMARKS
BOZEMAN        CLOUDY     7   3  83 SE5       30.01R WCI  -2
DILLON         CLOUDY    10   5  80 S3        29.96R
* W YELLOWSTON PTCLDY   -12 -19  70 N/A        N/A
* THREE FORKS  PTCLDY    10  10 100 N/A        N/A
* BOULDER HILL N/A       17   9  71 SW7        N/A   WCI   7
* MONIDA PASS  N/A        7   5  91 W9         N/A   WCI  -6
* RAYNOLDS PAS N/A        8   5  87 NW2        N/A
* WHITEHALL    N/A       14   9  80 W3         N/A
* WISE RIVER   N/A       10   6  84 W4         N/A
$$

MTZ009>010-012-014-046-048-049-054-261100-
EAST SLOPES AND CENTRAL MONTANA
CITY           SKY/WX    TMP DP  RH WIND       PRES   REMARKS
CUT BANK       LGT SNOW  21  19  92 N22       29.97R VSB 3    WCI   5
GREAT FALLS    CLOUDY    21  16  81 SW10      29.95R WCI  10
HELENA         CLOUDY    18  14  84 CALM      30.01R
MALMSTROM AFB  CLOUDY    19  16  88 SW8       29.98R WCI   9
* CONRAD       CLOUDY    27  19  72 W7         N/A   WCI  19
* EAST GLACIER N/A       22  16  78 NE9G16     N/A   WCI  12
* MONARCH      N/A       13   7  77 S6         N/A   WCI   4
* PENDROY      N/A       22  19  88 N19G27     N/A   WCI   7
* SWEET GRASS  N/A       20  20 100 VRB19G24    N/A   WCI   5
* WHITE SULPH  N/A        8   4  84 N2         N/A
$$

MTZ011-013-016-021-035-040-045-047-050-051-261100-
NORTH CENTRAL MONTANA
CITY           SKY/WX    TMP DP  RH WIND       PRES   REMARKS
HAVRE          CLOUDY    21  18  88 SW5       29.98R WCI  14
LEWISTOWN      CLEAR      7   1  76 SE7       29.95R WCI  -5
* N BAR RANCH  CLEAR      5   0  80 W5        29.95S WCI  -5
* CHINOOK      CLOUDY    23  18  81 CALM      30.00R
* CHESTER      N/A       11   8  88 SW1        N/A
* DENTON       N/A        5   0  80 SW2        N/A
* JUDITH GAP   N/A        4   2  91 N/A        N/A
* LOMA         N/A       15  12  88 E5         N/A   WCI   7
$$

MTZ017>020-022>027-061-062-261100-
NORTHEAST MONTANA
CITY           SKY/WX    TMP DP  RH WIND       PRES   REMARKS
GLASGOW        CLOUDY    18  12  77 E10       30.05F WCI   6
GLENDIVE       CLOUDY    18  14  84 E3        30.08S
JORDAN         PTCLDY    21  18  88 S5        30.03S WCI  14
SIDNEY         FAIR       9   3  76 NW3       30.13R
WOLF POINT     CLOUDY    16  10  77 E5        30.10F WCI   8
* BEAVER HILL  N/A       13   9  84 N/A        N/A
* CIRCLE       N/A       21  18  88 N/A        N/A
* LINDSAY DVD  N/A       20  15  81 W4         N/A
* NAVAJO       N/A       13  10  88 S3         N/A
* PLENTYWOOD A CLEAR     10   9  96 W7        30.08S WCI  -1
* POPLAR APT   CLEAR     10   9  96 N/A       30.11S
* SACO         N/A       22  18  85 E6         N/A   WCI  14
$$

MTZ028>042-056>058-261100-
SOUTHCENTRAL AND SOUTHEAST MONTANA
CITY           SKY/WX    TMP DP  RH WIND       PRES   REMARKS
BAKER          CLOUDY    19  14  81 NW7       30.05S WCI  10
BILLINGS       FOG       16  12  84 SW9       30.00R WCI   5
LIVINGSTON     PTCLDY     1  -2  87 W3        29.98R
MILES CITY     CLOUDY    21  18  88 SE5       30.06R WCI  14
* BIG TIMBER A PTCLDY     7   1  76 W5        29.97R WCI  -2
* FORSYTH APT  CLEAR     25  19  78 S3        30.05S
* LAUREL APT   MOCLDY    10   3  73 N/A        N/A
* ROUNDUP APT  PTCLDY    12   5  73 S5         N/A   WCI   4
* ALZADA       N/A       20  16  84 NW4        N/A
* HYSHAM       N/A       22  17  81 W1         N/A
* LAME DEER    N/A       16  14  92 NW4        N/A
* REED POINT   N/A        4   1  87 NW6        N/A   WCI  -7
* ROSCOE HILL  N/A       11   1  64 S6         N/A   WCI   1
$$

REGIONAL REPORTS...DAKOTAS
CITY           SKY/WX    TMP DP  RH WIND       PRES   REMARKS
WILLISTON      LGT SNOW  14   9  80 NW5       30.11S WCI   6
DICKINSON      CLOUDY    18  10  71 NW10      30.05R WCI   6
BEACH          CLOUDY    12  10  92 CALM      30.07R
CROSBY         LGT SNOW   7   7 100 NW8       30.11F WCI  -6
TIOGA          CLOUDY     9   7  91 NW14      30.11S WCI  -7
WATFORD CITY   LGT SNOW  14  10  84 W7        30.08S WCI   4
BISMARCK       CLOUDY    21  16  81 NW13      30.10R WCI   8
GRAND FORKS    CLOUDY    25  19  78 N9        30.08R WCI  16
FARGO          CLOUDY    25  19  78 N14       30.05R WCI  13
BUFFALO SD     PTCLDY    19  14  81 N14       29.97R WCI   5
RAPID CITY     CLOUDY    19  16  88 N12       30.03R WCI   6
$$

REGIONAL REPORTS...WYOMING/IDAHO/WASHINGTON
CITY           SKY/WX    TMP DP  RH WIND       PRES   REMARKS
GILLETTE       CLOUDY    18  14  84 N7        29.97R WCI   9
SHERIDAN       CLOUDY    19  14  81 CALM      30.00R
CODY           CLOUDY    18  14  84 CALM      29.94R
YELLOWSTONE LA MOCLDY     0  -6  75 VRB3      29.83R
SALMON         CLOUDY    21  18  88 SW3       30.03R
MULLAN PASS    CLOUDY    19  16  88 NW10G18   29.93S WCI   8
SAND POINT     CLEAR     27  27 100 CALM      30.12R
SPOKANE        PTCLDY    27  25  92 CALM      30.11R
$$

REGIONAL REPORTS...ALBERTA
CITY           SKY/WX    TMP DP  RH WIND       PRES   REMARKS
CALGARY        LGT SNOW  21  16  81 W7        30.03R WCI  12
LETHBRIDGE     LGT SNOW  25  23  92 NW9       30.05R VSB 2 1/4 WCI  16
MEDICINE HAT   LGT SNOW  18  16  92 N5        30.03R VSB 1 3/4 WCI  11
EDMONTON       FAIR       3   0  87 SW5       30.06R WCI  -7
WATERTON GATE  N/A       21  19  92 NE7        N/A   WCI  12
CARDSTON       N/A       21  21 100 N9         N/A   WCI  11
MILK RIVER     N/A       21  19  92 NW14       N/A   WCI   8
$$

REGIONAL REPORTS...SASKATCHEWAN
CITY           SKY/WX    TMP DP  RH WIND       PRES   REMARKS
SWIFT CURRENT  LGT SNOW   7   5  91 SE8       30.01R WCI  -6
REGINA         CLOUDY     0  -2  91 NW7       30.13R WCI -13
VAL MARIE      N/A       19  18  96 S3         N/A
ASSINIBOIA     N/A        5   1  83 SE1        N/A
CORONACH       N/A       12   9  88 S7         N/A   WCI   1

$$



USA.gov is the U.S. government's official web portal to all federal, state and local government web resources and services.